カタログに戻る

ATLAS H R/B

運用中LEO
NORAD 17998·ROCKET BODY·🇺🇸 United States

打ち上げ May 15, 1987 から Vandenberg Space Force Base

Loading…

次のパス (今後24時間)

TLE

最新Source: Space-Track

元期: Sep 14, 2026, 05:48 UTC

1 17998U 87043B   26257.24222853  .00000768  00000-0  28086-3 0  9994
2 17998  63.3224 358.0395 0697990 118.6718 248.6305 13.51556004363292

AllMySatでATLAS H R/Bをリアルタイム追跡

Download on the App Store